MOLNIYA 1-56 (13890 NORAD) Tracking and Keplerian Element Data

This shows tracking and keplerian element data for the satellite.

Feedback or suggestion? Click here.




ElementValue
Catalog13890
NameMOLNIYA 1-56
Epoch Orbit31220
Epoch Day352.65394655
Epoch Year2025
RAAN191.9544
Inclination62.5297
Eccentricity0.7017786
Argument of Perigee273.8308
Mean Anonmoly15.5258
Mean Motion1.99957529
Decay Rate1.226E-05
L11 13890U 83019A 25352.65394655 .00001226 00000+0 00000+0 0 9991
L22 13890 62.5297 191.9544 7017786 273.8308 15.5258 1.99957529312204



Live tracking and technical data element details for MOLNIYA 1-56 (NORAD 13890). MOLNIYA 1-56 can be tracked NOW for your location showing map with azimuth and elevation plus other details from your city location.







IsCatalogInMostPopularTable: catalog: 13890, numindb: 371
Update: records affected: 1



GetName: 13890 MOLNIYA 1-56

Hit Count: updated at: Tue, 20 Jan 2026 19:50:23 GMT